Waarnemingen

Advertentie
Mijn weer
Alghero, Italië (16520): temperatuur & dauwpunt: 19.11.2017 02:00:00 - 25.11.2017 02:00:00 (CET)Alghero, Italië (16520): windsnelheid: 19.11.2017 02:00:00 - 25.11.2017 02:00:00 (CET)Alghero, Italië (16520): windrichting: 19.11.2017 02:00:00 - 25.11.2017 02:00:00 (CET)Alghero, Italië (16520): luchtdruk: 19.11.2017 02:00:00 - 25.11.2017 02:00:00 (CET)Alghero, Italië (16520): zicht: 19.11.2017 02:00:00 - 25.11.2017 02:00:00 (CET)
Datum & Tijd tt [°C] td [°C] ff [km/u] ff [kn] dd ppp [hPa] vv [km]
25.11.2017 02:00:00 16,0 13,0 24 13 Z - 10
25.11.2017 01:00:00 16,1 13,4 22 12 ZZW 1020,8 10
25.11.2017 00:00:00 16,0 13,0 21 11 ZZW - 10
24.11.2017 23:00:00 16,0 13,0 16 9 ZZW - 10
24.11.2017 22:00:00 15,6 13,1 15 8 Z 1021,5 10
24.11.2017 21:00:00 15,0 13,0 15 8 Z - 10
24.11.2017 20:00:00 15,0 13,0 15 8 ZZW - 10
24.11.2017 19:00:00 15,0 12,6 9 5 Z 1021,4 10
24.11.2017 18:00:00 15,0 12,0 5 3 Z - 10
24.11.2017 17:00:00 15,0 12,0 9 5 Z - 10
24.11.2017 16:00:00 15,9 12,2 15 8 Z 1021,5 10
24.11.2017 15:00:00 17,0 12,0 16 9 ZZW - 10
24.11.2017 14:00:00 17,0 12,0 16 9 ZZW - 10
24.11.2017 13:00:00 16,9 11,8 13 7 Z 1022,2 10
24.11.2017 12:00:00 17,0 12,0 11 6 Z - 10
24.11.2017 11:00:00 16,0 12,0 4 2 - - 10
24.11.2017 10:00:00 12,3 10,5 2 1 - 1023,2 10
24.11.2017 09:00:00 8,0 7,0 4 2 N - 10
24.11.2017 08:00:00 4,0 3,0 4 2 - - 7
24.11.2017 07:00:00 3,6 2,7 0 0 N 1022,9 7
24.11.2017 06:00:00 4,0 3,0 2 1 - - 8
24.11.2017 05:00:00 - - - - - - -
24.11.2017 04:00:00 4,1 3,2 5 3 NO 1022,1 8
24.11.2017 03:00:00 - - - - - - -
24.11.2017 02:00:00 5,0 4,0 5 3 N - 8
24.11.2017 01:00:00 3,8 2,9 0 0 N 1022,2 8
24.11.2017 00:00:00 6,0 5,0 4 2 N - 8
23.11.2017 23:00:00 6,0 5,0 0 0 N - 8
23.11.2017 22:00:00 7,0 5,9 2 1 W 1022,0 10
23.11.2017 21:00:00 9,0 7,0 0 0 N - 10
23.11.2017 20:00:00 10,0 9,0 0 0 N - 10
23.11.2017 19:00:00 11,0 9,0 5 3 NNO 1021,2 10
23.11.2017 18:00:00 13,0 10,0 4 2 - - 10
23.11.2017 17:00:00 16,0 11,0 4 2 - - 10
23.11.2017 16:00:00 17,3 10,9 9 5 WNW 1019,8 10
23.11.2017 15:00:00 19,0 11,0 5 3 WNW - 10
23.11.2017 14:00:00 19,0 12,0 8 4 Z - 10
23.11.2017 13:00:00 19,3 9,9 5 3 O 1019,7 10
23.11.2017 12:00:00 18,0 12,0 2 1 - - 10
23.11.2017 11:00:00 15,0 12,0 4 2 O - 10
23.11.2017 10:00:00 12,2 10,8 4 2 - 1020,7 10
23.11.2017 09:00:00 9,0 8,0 4 2 N - 10
23.11.2017 08:00:00 6,0 5,0 4 2 - - 7
23.11.2017 07:00:00 5,8 4,9 8 4 NNO 1019,5 7
23.11.2017 06:00:00 5,0 4,0 0 0 N - 5
23.11.2017 05:00:00 - - - - - - -
23.11.2017 04:00:00 5,2 4,3 4 2 - 1018,8 5
23.11.2017 03:00:00 7,0 6,0 4 2 NNO - 5
23.11.2017 02:00:00 6,0 5,0 0 0 N - 5
23.11.2017 01:00:00 6,6 5,5 4 2 - 1019,2 5
23.11.2017 00:00:00 8,0 7,0 4 2 NNO - 5
22.11.2017 23:00:00 9,0 7,0 0 0 N - 5
22.11.2017 22:00:00 8,5 7,3 0 0 N 1019,6 5
22.11.2017 21:00:00 8,0 6,0 0 0 N - 10
22.11.2017 20:00:00 10,0 8,0 0 0 N - 10
22.11.2017 19:00:00 11,6 9,3 4 2 NNO 1019,4 10
22.11.2017 18:00:00 13,0 10,0 5 3 ONO - 10
22.11.2017 17:00:00 16,0 11,0 2 1 - - 10
22.11.2017 16:00:00 18,0 11,4 5 3 WNW 1018,9 10
22.11.2017 15:00:00 18,0 12,0 9 5 Z - 10
22.11.2017 14:00:00 19,0 11,0 5 3 ZZW - 10
22.11.2017 13:00:00 18,9 11,5 8 4 Z 1019,8 10
22.11.2017 12:00:00 18,0 12,0 9 5 Z - 10
22.11.2017 11:00:00 16,0 13,0 2 1 - - 10
22.11.2017 10:00:00 13,3 12,2 2 1 - 1021,2 10
22.11.2017 09:00:00 10,0 9,0 2 1 - - 5
22.11.2017 08:00:00 7,0 6,0 8 4 NNO - 1,0
22.11.2017 07:00:00 8,6 7,7 5 3 NO 1020,4 10
22.11.2017 06:00:00 9,0 8,0 2 1 - - 10
22.11.2017 05:00:00 9,0 8,0 4 2 - - 10
22.11.2017 04:00:00 9,0 7,9 0 0 N 1020,7 10
22.11.2017 03:00:00 12,0 11,0 4 2 - - 10
22.11.2017 02:00:00 11,0 10,0 4 2 - - 10
22.11.2017 01:00:00 11,4 9,9 9 5 WZW 1021,3 10
22.11.2017 00:00:00 12,0 11,0 8 4 ZZW - 10
21.11.2017 23:00:00 13,0 11,0 11 6 ZZW - 10
21.11.2017 22:00:00 12,7 10,9 8 4 ZW 1021,2 10
21.11.2017 21:00:00 14,0 12,0 5 3 W - 10
21.11.2017 20:00:00 13,0 11,0 5 3 WZW - 10
21.11.2017 19:00:00 13,4 10,8 5 3 W 1021,0 10
21.11.2017 18:00:00 14,0 11,0 9 5 WZW - 10
21.11.2017 17:00:00 16,0 12,0 11 6 ZW - 10
21.11.2017 16:00:00 17,8 12,1 13 7 W 1020,4 10
21.11.2017 15:00:00 18,0 12,0 15 8 W - 10
21.11.2017 14:00:00 19,0 12,0 16 9 WZW - 10
21.11.2017 13:00:00 19,6 12,4 16 9 WZW 1020,8 10
21.11.2017 12:00:00 17,0 12,0 24 13 ZZW - 10
21.11.2017 11:00:00 17,0 11,0 26 14 ZZW - 10
21.11.2017 10:00:00 15,7 10,8 21 11 Z 1021,6 10
21.11.2017 09:00:00 10,0 9,0 2 1 - - 10
21.11.2017 08:00:00 4,0 3,0 0 0 N - 10
21.11.2017 07:00:00 3,9 2,7 0 0 N 1021,4 10
21.11.2017 06:00:00 4,0 3,0 2 1 - - 10
21.11.2017 05:00:00 5,0 3,0 0 0 N - 10
21.11.2017 04:00:00 5,5 4,1 4 2 ONO 1021,3 10
21.11.2017 03:00:00 7,0 5,0 4 2 - - 10
21.11.2017 02:00:00 8,0 5,0 4 2 O - 10
21.11.2017 01:00:00 9,2 6,3 0 0 N 1021,8 10
21.11.2017 00:00:00 10,0 6,0 4 2 ZZW - 10
20.11.2017 23:00:00 12,0 7,0 8 4 WZW - 10
20.11.2017 22:00:00 11,5 7,1 8 4 WZW 1021,8 10
20.11.2017 21:00:00 12,0 7,0 9 5 WZW - 10
20.11.2017 20:00:00 13,0 7,0 9 5 WZW - 10
20.11.2017 19:00:00 13,1 7,5 13 7 WZW 1021,1 10
20.11.2017 18:00:00 13,0 7,0 13 7 WZW - 10
20.11.2017 17:00:00 13,0 8,0 13 7 WZW - 10
20.11.2017 16:00:00 14,2 7,8 15 8 W 1020,9 10
20.11.2017 15:00:00 16,0 9,0 16 9 W - 10
20.11.2017 14:00:00 15,0 9,0 13 7 W - 10
20.11.2017 13:00:00 15,8 8,1 21 11 WZW 1020,9 10
20.11.2017 12:00:00 16,0 9,0 16 9 ZW - 10
20.11.2017 11:00:00 16,0 9,0 15 8 ZW - 10
20.11.2017 10:00:00 12,6 10,5 0 0 N 1020,9 10
20.11.2017 09:00:00 9,0 8,0 2 1 - - 10
20.11.2017 08:00:00 7,0 6,0 5 3 NNO - 10
20.11.2017 07:00:00 6,9 5,7 8 4 NNO 1019,3 10
20.11.2017 06:00:00 7,0 6,0 4 2 O - 10
20.11.2017 05:00:00 8,0 6,0 2 1 - - 10
20.11.2017 04:00:00 8,8 7,3 4 2 - 1018,3 10
20.11.2017 03:00:00 8,0 7,0 5 3 O - 10
20.11.2017 02:00:00 8,0 6,0 2 1 - - 10
20.11.2017 01:00:00 9,4 6,9 4 2 - 1018,0 10
20.11.2017 00:00:00 11,0 8,0 4 2 Z - 10
19.11.2017 23:00:00 12,0 8,0 5 3 WZW - 10
19.11.2017 22:00:00 12,5 8,4 8 4 WZW 1017,5 10
19.11.2017 21:00:00 14,0 9,0 8 4 W - 10
19.11.2017 20:00:00 15,0 9,0 13 7 WNW - 10
19.11.2017 19:00:00 14,5 8,6 9 5 W 1016,5 10
19.11.2017 18:00:00 14,0 8,0 11 6 W - 10
19.11.2017 17:00:00 14,0 8,0 15 8 WNW - 10
19.11.2017 16:00:00 15,1 8,2 15 8 W 1015,9 10
19.11.2017 15:00:00 16,0 9,0 18 10 W - 10
19.11.2017 14:00:00 16,0 8,0 18 10 W - 10
19.11.2017 13:00:00 16,0 7,8 21 11 W 1016,8 10
19.11.2017 12:00:00 15,0 8,0 24 13 W - 10
19.11.2017 11:00:00 14,0 8,0 18 10 W - 10
19.11.2017 10:00:00 14,3 8,2 21 11 W 1018,0 10
19.11.2017 09:00:00 13,0 8,0 16 9 W - 10
19.11.2017 08:00:00 10,0 9,0 9 5 W - 10
19.11.2017 07:00:00 6,9 6,0 2 1 - 1017,3 8
19.11.2017 06:00:00 6,0 5,0 0 0 N - 8
19.11.2017 05:00:00 - - - - - - -
19.11.2017 04:00:00 6,9 5,9 0 0 N 1017,5 8
19.11.2017 03:00:00 7,0 6,0 0 0 N - 8
19.11.2017 02:00:00 7,0 6,0 0 0 N - 8

tt = temperatuur
td = dauwpunt
ff = windsnelheid
dd = windrichting
ppp = luchtdruk
vv = zicht

Weerstations in de omgeving